date,time,SUV Intensity [MED/Hr],UV Index,Daily total [MED],Since Last [MED]
11/09/2022,00:00:30,0.000,0.0,0.0,0.0
11/09/2022,00:01:29,-0.001,0.0,0.0,0.0
11/09/2022,00:02:29,0.000,0.0,0.0,0.0
11/09/2022,00:03:31,-0.000,0.0,0.0,0.0
11/09/2022,00:04:30,0.000,0.0,0.0,0.0
11/09/2022,00:05:42,0.001,0.0,0.0,0.0
11/09/2022,00:06:30,0.000,0.0,0.0,0.0
11/09/2022,00:07:30,0.000,0.0,0.0,0.0
11/09/2022,00:08:30,0.000,0.0,0.0,0.0
11/09/2022,00:09:30,0.000,0.0,0.0,0.0
11/09/2022,00:10:29,0.000,0.0,0.0,0.0
11/09/2022,00:11:30,0.000,0.0,0.0,0.0
11/09/2022,00:12:38,0.000,0.0,0.0,0.0
11/09/2022,00:13:30,0.000,0.0,0.0,0.0
11/09/2022,00:14:30,-0.001,0.0,0.0,0.0
11/09/2022,00:15:29,0.001,0.0,0.0,0.0
11/09/2022,00:16:29,0.000,0.0,0.0,0.0
11/09/2022,00:17:30,0.001,0.0,0.0,0.0
11/09/2022,00:18:38,0.000,0.0,0.0,0.0
11/09/2022,00:19:30,0.000,0.0,0.0,0.0
11/09/2022,00:20:30,0.001,0.0,0.0,0.0
11/09/2022,00:21:30,-0.001,0.0,0.0,0.0
11/09/2022,00:22:30,0.000,0.0,0.0,0.0
11/09/2022,00:23:29,0.000,0.0,0.0,0.0
11/09/2022,00:24:29,0.001,0.0,0.0,0.0
11/09/2022,00:25:30,0.000,0.0,0.0,0.0
11/09/2022,00:26:30,-0.001,0.0,0.0,0.0
11/09/2022,00:27:30,-0.000,0.0,0.0,0.0
11/09/2022,00:28:30,0.000,0.0,0.0,0.0
11/09/2022,00:29:30,0.000,0.0,0.0,0.0
11/09/2022,00:30:38,0.001,0.0,0.0,0.0
11/09/2022,00:31:30,0.001,0.0,0.0,0.0
11/09/2022,00:32:24,0.001,0.0,0.0,0.0
11/09/2022,00:33:30,0.000,0.0,0.0,0.0
11/09/2022,00:34:30,0.000,0.0,0.0,0.0
11/09/2022,00:35:30,0.001,0.0,0.0,0.0
11/09/2022,00:36:30,0.000,0.0,0.0,0.0
11/09/2022,00:37:30,-0.001,0.0,0.0,0.0
11/09/2022,00:38:30,0.000,0.0,0.0,0.0
11/09/2022,00:39:30,0.000,0.0,0.0,0.0
11/09/2022,00:40:30,0.000,0.0,0.0,0.0
11/09/2022,00:41:30,0.000,0.0,0.0,0.0
11/09/2022,00:42:30,0.001,0.0,0.0,0.0
11/09/2022,00:43:30,-0.001,0.0,0.0,0.0
11/09/2022,00:44:30,-0.001,0.0,0.0,0.0
11/09/2022,00:45:38,0.000,0.0,0.0,0.0
11/09/2022,00:46:30,-0.000,0.0,0.0,0.0
11/09/2022,00:47:30,-0.000,0.0,0.0,0.0
11/09/2022,00:48:38,0.000,0.0,0.0,0.0
11/09/2022,00:49:30,-0.000,0.0,0.0,0.0
11/09/2022,00:50:30,0.000,0.0,0.0,0.0
11/09/2022,00:51:38,0.000,0.0,0.0,0.0
11/09/2022,00:52:30,0.001,0.0,0.0,0.0
11/09/2022,00:53:31,-0.001,0.0,0.0,0.0
11/09/2022,00:54:30,0.000,0.0,0.0,0.0
11/09/2022,00:55:29,0.000,0.0,0.0,0.0
11/09/2022,00:56:29,0.000,0.0,0.0,0.0
11/09/2022,00:57:30,0.001,0.0,0.0,0.0
11/09/2022,00:58:30,0.000,0.0,0.0,0.0
11/09/2022,00:59:30,0.000,0.0,0.0,0.0
11/09/2022,01:00:30,0.001,0.0,0.0,0.0
11/09/2022,01:01:30,0.001,0.0,0.0,0.0
11/09/2022,01:02:30,0.001,0.0,0.0,0.0
11/09/2022,01:03:30,0.000,0.0,0.0,0.0
11/09/2022,01:04:30,0.000,0.0,0.0,0.0
11/09/2022,01:05:30,0.001,0.0,0.0,0.0
11/09/2022,01:06:39,-0.000,0.0,0.0,0.0
11/09/2022,01:07:30,0.000,0.0,0.0,0.0
11/09/2022,01:08:30,0.000,0.0,0.0,0.0
11/09/2022,01:09:30,0.000,0.0,0.0,0.0
11/09/2022,01:10:30,0.000,0.0,0.0,0.0
11/09/2022,01:11:30,-0.000,0.0,0.0,0.0
11/09/2022,01:12:30,0.001,0.0,0.0,0.0
11/09/2022,01:13:30,0.000,0.0,0.0,0.0
11/09/2022,01:14:30,0.000,0.0,0.0,0.0
11/09/2022,01:15:30,-0.001,0.0,0.0,0.0
11/09/2022,01:16:30,0.000,0.0,0.0,0.0
11/09/2022,01:17:29,0.001,0.0,0.0,0.0
11/09/2022,01:18:31,0.001,0.0,0.0,0.0
11/09/2022,01:19:30,0.000,0.0,0.0,0.0
11/09/2022,01:20:30,0.000,0.0,0.0,0.0
11/09/2022,01:21:30,0.000,0.0,0.0,0.0
11/09/2022,01:22:30,0.001,0.0,0.0,0.0
11/09/2022,01:23:30,-0.000,0.0,0.0,0.0
11/09/2022,01:24:39,0.000,0.0,0.0,0.0
11/09/2022,01:25:29,0.001,0.0,0.0,0.0
11/09/2022,01:26:30,0.000,0.0,0.0,0.0
11/09/2022,01:27:30,0.000,0.0,0.0,0.0
11/09/2022,01:28:30,0.001,0.0,0.0,0.0
11/09/2022,01:29:30,0.000,0.0,0.0,0.0
11/09/2022,01:30:30,0.001,0.0,0.0,0.0
11/09/2022,01:31:30,0.000,0.0,0.0,0.0
11/09/2022,01:32:30,0.001,0.0,0.0,0.0
11/09/2022,01:33:38,0.000,0.0,0.0,0.0
11/09/2022,01:34:30,0.001,0.0,0.0,0.0
11/09/2022,01:35:30,-0.000,0.0,0.0,0.0
11/09/2022,01:36:30,0.000,0.0,0.0,0.0
11/09/2022,01:37:30,0.001,0.0,0.0,0.0
11/09/2022,01:38:31,0.000,0.0,0.0,0.0
11/09/2022,01:39:30,0.000,0.0,0.0,0.0
11/09/2022,01:40:30,0.001,0.0,0.0,0.0
11/09/2022,01:41:30,0.000,0.0,0.0,0.0
11/09/2022,01:42:30,-0.001,0.0,0.0,0.0
11/09/2022,01:43:30,0.001,0.0,0.0,0.0
11/09/2022,01:44:30,0.000,0.0,0.0,0.0
11/09/2022,01:45:30,0.000,0.0,0.0,0.0
11/09/2022,01:46:38,0.001,0.0,0.0,0.0
11/09/2022,01:47:30,0.001,0.0,0.0,0.0
11/09/2022,01:48:30,0.001,0.0,0.0,0.0
11/09/2022,01:49:30,0.000,0.0,0.0,0.0
11/09/2022,01:50:30,0.001,0.0,0.0,0.0
11/09/2022,01:51:30,0.000,0.0,0.0,0.0
11/09/2022,01:52:30,0.001,0.0,0.0,0.0
11/09/2022,01:53:46,0.001,0.0,0.0,0.0
11/09/2022,01:54:30,0.000,0.0,0.0,0.0
11/09/2022,01:55:30,0.001,0.0,0.0,0.0
11/09/2022,01:56:30,0.001,0.0,0.0,0.0
11/09/2022,01:57:30,0.001,0.0,0.0,0.0
11/09/2022,01:58:30,0.000,0.0,0.0,0.0
11/09/2022,01:59:30,0.000,0.0,0.0,0.0
11/09/2022,02:00:30,0.000,0.0,0.0,0.0
11/09/2022,02:01:30,0.002,0.0,0.0,0.0
11/09/2022,02:02:38,0.000,0.0,0.0,0.0
11/09/2022,02:03:30,0.000,0.0,0.0,0.0
11/09/2022,02:04:38,0.001,0.0,0.0,0.0
11/09/2022,02:05:30,-0.000,0.0,0.0,0.0
11/09/2022,02:06:37,0.001,0.0,0.0,0.0
11/09/2022,02:07:30,0.000,0.0,0.0,0.0
11/09/2022,02:08:30,-0.001,0.0,0.0,0.0
11/09/2022,02:09:30,0.000,0.0,0.0,0.0
11/09/2022,02:10:30,0.000,0.0,0.0,0.0
11/09/2022,02:11:30,-0.000,0.0,0.0,0.0
11/09/2022,02:12:30,-0.000,0.0,0.0,0.0
11/09/2022,02:13:30,-0.001,0.0,0.0,0.0
11/09/2022,02:14:30,0.000,0.0,0.0,0.0
11/09/2022,02:15:30,0.001,0.0,0.0,0.0
11/09/2022,02:16:39,-0.001,0.0,0.0,0.0
11/09/2022,02:17:30,0.001,0.0,0.0,0.0
11/09/2022,02:18:30,0.000,0.0,0.0,0.0
11/09/2022,02:19:30,0.000,0.0,0.0,0.0
11/09/2022,02:20:30,0.001,0.0,0.0,0.0
11/09/2022,02:21:30,0.001,0.0,0.0,0.0
11/09/2022,02:22:39,-0.001,0.0,0.0,0.0
11/09/2022,02:23:30,0.000,0.0,0.0,0.0
11/09/2022,02:24:30,-0.001,0.0,0.0,0.0
11/09/2022,02:25:30,0.000,0.0,0.0,0.0
11/09/2022,02:26:30,0.001,0.0,0.0,0.0
11/09/2022,02:27:30,0.000,0.0,0.0,0.0
11/09/2022,02:28:17,0.000,0.0,0.0,0.0
11/09/2022,02:29:47,-0.000,0.0,0.0,0.0
11/09/2022,02:30:30,0.001,0.0,0.0,0.0
11/09/2022,02:31:30,0.000,0.0,0.0,0.0
11/09/2022,02:32:30,0.000,0.0,0.0,0.0
11/09/2022,02:33:30,0.001,0.0,0.0,0.0
11/09/2022,02:34:30,-0.000,0.0,0.0,0.0
11/09/2022,02:35:30,0.000,0.0,0.0,0.0
11/09/2022,02:36:30,0.000,0.0,0.0,0.0
11/09/2022,02:37:30,0.000,0.0,0.0,0.0
11/09/2022,02:38:30,0.000,0.0,0.0,0.0
11/09/2022,02:39:30,-0.000,0.0,0.0,0.0
11/09/2022,02:40:31,0.000,0.0,0.0,0.0
11/09/2022,02:41:30,0.000,0.0,0.0,0.0
11/09/2022,02:42:22,0.001,0.0,0.0,0.0
11/09/2022,02:43:31,0.000,0.0,0.0,0.0
11/09/2022,02:44:30,0.001,0.0,0.0,0.0
11/09/2022,02:45:30,0.001,0.0,0.0,0.0
11/09/2022,02:46:30,0.001,0.0,0.0,0.0
11/09/2022,02:47:37,0.001,0.0,0.0,0.0
11/09/2022,02:48:30,0.000,0.0,0.0,0.0
11/09/2022,02:49:38,0.001,0.0,0.0,0.0
11/09/2022,02:50:30,0.001,0.0,0.0,0.0
11/09/2022,02:51:30,-0.000,0.0,0.0,0.0
11/09/2022,02:52:30,0.001,0.0,0.0,0.0
11/09/2022,02:53:30,0.001,0.0,0.0,0.0
11/09/2022,02:54:30,-0.000,0.0,0.0,0.0
11/09/2022,02:55:30,0.001,0.0,0.0,0.0
11/09/2022,02:56:30,0.001,0.0,0.0,0.0
11/09/2022,02:57:31,0.001,0.0,0.0,0.0
11/09/2022,02:58:30,0.001,0.0,0.0,0.0
11/09/2022,02:59:32,0.001,0.0,0.0,0.0
11/09/2022,03:00:30,0.001,0.0,0.0,0.0
11/09/2022,03:02:29,0.001,0.0,0.0,0.0
11/09/2022,03:03:29,-0.000,0.0,0.0,0.0
11/09/2022,03:04:30,-0.000,0.0,0.0,0.0
11/09/2022,03:05:29,0.001,0.0,0.0,0.0
11/09/2022,03:06:29,0.001,0.0,0.0,0.0
11/09/2022,03:07:30,0.002,0.0,0.0,0.0
11/09/2022,03:08:29,0.001,0.0,0.0,0.0
11/09/2022,03:09:29,0.000,0.0,0.0,0.0
11/09/2022,03:10:30,0.001,0.0,0.0,0.0
11/09/2022,03:11:30,0.001,0.0,0.0,0.0
11/09/2022,03:12:30,0.001,0.0,0.0,0.0
11/09/2022,03:13:30,0.001,0.0,0.0,0.0
11/09/2022,03:14:29,0.001,0.0,0.0,0.0
11/09/2022,03:15:30,0.001,0.0,0.0,0.0
11/09/2022,03:16:30,0.001,0.0,0.0,0.0
11/09/2022,03:17:29,0.000,0.0,0.0,0.0
11/09/2022,03:18:30,-0.000,0.0,0.0,0.0
11/09/2022,03:19:30,0.000,0.0,0.0,0.0
11/09/2022,03:20:29,0.001,0.0,0.0,0.0
11/09/2022,03:21:29,-0.000,0.0,0.0,0.0
11/09/2022,03:22:22,0.002,0.0,0.0,0.0
11/09/2022,03:23:30,0.001,0.0,0.0,0.0
11/09/2022,03:24:29,0.001,0.0,0.0,0.0
11/09/2022,03:25:30,0.000,0.0,0.0,0.0
11/09/2022,03:26:30,0.001,0.0,0.0,0.0
11/09/2022,03:27:29,0.002,0.0,0.0,0.0
11/09/2022,03:28:29,0.002,0.0,0.0,0.0
11/09/2022,03:29:30,0.000,0.0,0.0,0.0
11/09/2022,03:30:29,0.001,0.0,0.0,0.0
11/09/2022,03:31:30,0.001,0.0,0.0,0.0
11/09/2022,03:32:30,0.001,0.0,0.0,0.0
11/09/2022,03:33:29,0.001,0.0,0.0,0.0
11/09/2022,03:34:30,0.001,0.0,0.0,0.0
11/09/2022,03:35:30,0.002,0.0,0.0,0.0
11/09/2022,03:36:29,0.001,0.0,0.0,0.0
11/09/2022,03:37:30,0.001,0.0,0.0,0.0
11/09/2022,03:38:30,0.002,0.0,0.0,0.0
11/09/2022,03:39:29,0.001,0.0,0.0,0.0
11/09/2022,03:40:30,0.001,0.0,0.0,0.0
11/09/2022,03:41:30,0.000,0.0,0.0,0.0
11/09/2022,03:42:29,0.001,0.0,0.0,0.0
11/09/2022,03:43:30,0.001,0.0,0.0,0.0
11/09/2022,03:44:29,0.001,0.0,0.0,0.0
11/09/2022,03:45:29,0.000,0.0,0.0,0.0
11/09/2022,03:46:30,0.001,0.0,0.0,0.0
11/09/2022,03:47:30,0.001,0.0,0.0,0.0
11/09/2022,03:48:29,0.001,0.0,0.0,0.0
11/09/2022,03:49:30,0.000,0.0,0.0,0.0
11/09/2022,03:50:29,0.002,0.0,0.0,0.0
11/09/2022,03:51:29,0.000,0.0,0.0,0.0
11/09/2022,03:52:30,-0.000,0.0,0.0,0.0
11/09/2022,03:53:29,0.001,0.0,0.0,0.0
11/09/2022,03:54:29,-0.000,0.0,0.0,0.0
11/09/2022,03:55:30,0.001,0.0,0.0,0.0
11/09/2022,03:56:29,0.000,0.0,0.0,0.0
11/09/2022,03:57:30,-0.000,0.0,0.0,0.0
11/09/2022,03:58:30,0.001,0.0,0.0,0.0
11/09/2022,03:59:29,0.001,0.0,0.0,0.0
11/09/2022,04:00:29,0.000,0.0,0.0,0.0
11/09/2022,04:01:30,-0.000,0.0,0.0,0.0
11/09/2022,04:02:29,0.001,0.0,0.0,0.0
11/09/2022,04:03:29,0.001,0.0,0.0,0.0
11/09/2022,04:04:30,0.001,0.0,0.0,0.0
11/09/2022,04:05:30,-0.001,0.0,0.0,0.0
11/09/2022,04:06:29,-0.001,0.0,0.0,0.0
11/09/2022,04:07:30,0.000,0.0,0.0,0.0
11/09/2022,04:08:30,0.000,0.0,0.0,0.0
11/09/2022,04:09:29,0.000,0.0,0.0,0.0
11/09/2022,04:10:30,-0.001,0.0,0.0,0.0
11/09/2022,04:11:30,0.001,0.0,0.0,0.0
11/09/2022,04:12:29,0.000,0.0,0.0,0.0
11/09/2022,04:13:30,0.001,0.0,0.0,0.0
11/09/2022,04:14:30,-0.000,0.0,0.0,0.0
11/09/2022,04:15:29,0.001,0.0,0.0,0.0
11/09/2022,04:16:30,0.000,0.0,0.0,0.0
11/09/2022,04:17:30,0.001,0.0,0.0,0.0
11/09/2022,04:18:29,0.001,0.0,0.0,0.0
11/09/2022,04:19:30,0.001,0.0,0.0,0.0
11/09/2022,04:20:30,0.000,0.0,0.0,0.0
11/09/2022,04:21:29,0.002,0.0,0.0,0.0
11/09/2022,04:22:30,0.000,0.0,0.0,0.0
11/09/2022,04:23:30,0.001,0.0,0.0,0.0
11/09/2022,04:24:30,0.001,0.0,0.0,0.0
11/09/2022,04:25:29,0.001,0.0,0.0,0.0
11/09/2022,04:26:30,0.001,0.0,0.0,0.0
11/09/2022,04:27:30,0.001,0.0,0.0,0.0
11/09/2022,04:28:29,0.001,0.0,0.0,0.0
11/09/2022,04:29:30,0.000,0.0,0.0,0.0
11/09/2022,04:30:30,0.000,0.0,0.0,0.0
11/09/2022,04:31:30,0.000,0.0,0.0,0.0
11/09/2022,04:32:30,0.001,0.0,0.0,0.0
11/09/2022,04:33:29,0.002,0.0,0.0,0.0
11/09/2022,04:34:30,0.001,0.0,0.0,0.0
11/09/2022,04:35:30,0.001,0.0,0.0,0.0
11/09/2022,04:36:29,0.001,0.0,0.0,0.0
11/09/2022,04:37:30,0.001,0.0,0.0,0.0
11/09/2022,04:38:30,-0.000,0.0,0.0,0.0
11/09/2022,04:39:30,0.001,0.0,0.0,0.0
11/09/2022,04:40:29,0.000,0.0,0.0,0.0
11/09/2022,04:41:30,0.001,0.0,0.0,0.0
11/09/2022,04:42:30,0.001,0.0,0.0,0.0
11/09/2022,04:43:30,0.001,0.0,0.0,0.0
11/09/2022,04:44:30,0.002,0.0,0.0,0.0
11/09/2022,04:45:29,0.000,0.0,0.0,0.0
11/09/2022,04:46:30,0.001,0.0,0.0,0.0
11/09/2022,04:47:30,0.001,0.0,0.0,0.0
11/09/2022,04:48:29,0.000,0.0,0.0,0.0
11/09/2022,04:49:30,0.001,0.0,0.0,0.0
11/09/2022,04:50:30,0.000,0.0,0.0,0.0
11/09/2022,04:51:29,0.000,0.0,0.0,0.0
11/09/2022,04:52:30,-0.000,0.0,0.0,0.0
11/09/2022,04:53:30,0.001,0.0,0.0,0.0
11/09/2022,04:54:29,0.000,0.0,0.0,0.0
11/09/2022,04:55:30,0.001,0.0,0.0,0.0
11/09/2022,04:56:30,0.001,0.0,0.0,0.0
11/09/2022,04:57:29,0.001,0.0,0.0,0.0
11/09/2022,04:58:30,0.001,0.0,0.0,0.0
11/09/2022,04:59:30,-0.000,0.0,0.0,0.0
11/09/2022,05:00:30,0.001,0.0,0.0,0.0
11/09/2022,05:01:30,-0.000,0.0,0.0,0.0
11/09/2022,05:02:30,0.001,0.0,0.0,0.0
11/09/2022,05:03:30,0.001,0.0,0.0,0.0
11/09/2022,05:04:30,0.001,0.0,0.0,0.0
11/09/2022,05:05:30,0.001,0.0,0.0,0.0
11/09/2022,05:06:29,0.001,0.0,0.0,0.0
11/09/2022,05:07:30,0.001,0.0,0.0,0.0
11/09/2022,05:08:30,0.001,0.0,0.0,0.0
11/09/2022,05:09:29,0.001,0.0,0.0,0.0
11/09/2022,05:10:30,0.001,0.0,0.0,0.0
11/09/2022,05:11:30,0.001,0.0,0.0,0.0
11/09/2022,05:12:29,0.001,0.0,0.0,0.0
11/09/2022,05:13:30,0.001,0.0,0.0,0.0
11/09/2022,05:14:29,0.001,0.0,0.0,0.0
11/09/2022,05:15:30,0.001,0.0,0.0,0.0
11/09/2022,05:16:30,0.001,0.0,0.0,0.0
11/09/2022,05:17:29,0.001,0.0,0.0,0.0
11/09/2022,05:18:30,0.001,0.0,0.0,0.0
11/09/2022,05:19:30,0.001,0.0,0.0,0.0
11/09/2022,05:20:29,0.001,0.0,0.0,0.0
11/09/2022,05:21:30,0.001,0.0,0.0,0.0
11/09/2022,05:22:30,0.001,0.0,0.0,0.0
11/09/2022,05:23:30,0.002,0.0,0.0,0.0
11/09/2022,05:24:29,0.001,0.0,0.0,0.0
11/09/2022,05:25:30,0.001,0.0,0.0,0.0
11/09/2022,05:26:30,0.002,0.0,0.0,0.0
11/09/2022,05:27:30,0.002,0.0,0.0,0.0
11/09/2022,05:28:30,0.002,0.0,0.0,0.0
11/09/2022,05:29:30,0.003,0.0,0.0,0.0
11/09/2022,05:30:30,0.001,0.0,0.0,0.0
11/09/2022,05:31:30,0.003,0.0,0.0,0.0
11/09/2022,05:32:30,0.003,0.0,0.0,0.0
11/09/2022,05:33:29,0.003,0.0,0.0,0.0
11/09/2022,05:34:30,0.003,0.0,0.0,0.0
11/09/2022,05:35:30,0.003,0.0,0.0,0.0
11/09/2022,05:36:29,0.003,0.0,0.0,0.0
11/09/2022,05:37:30,0.003,0.0,0.0,0.0
11/09/2022,05:38:30,0.003,0.0,0.0,0.0
11/09/2022,05:39:30,0.003,0.0,0.0,0.0
11/09/2022,05:40:30,0.004,0.0,0.0,0.0
11/09/2022,05:41:29,0.004,0.0,0.0,0.0
11/09/2022,05:42:30,0.004,0.0,0.0,0.0
11/09/2022,05:43:30,0.005,0.0,0.0,0.0
11/09/2022,05:44:30,0.005,0.0,0.0,0.0
11/09/2022,05:45:30,0.005,0.0,0.0,0.0
11/09/2022,05:46:30,0.005,0.0,0.0,0.0
11/09/2022,05:47:30,0.006,0.0,0.0,0.0
11/09/2022,05:48:30,0.007,0.0,0.0,0.0
11/09/2022,05:49:30,0.007,0.0,0.0,0.0
11/09/2022,05:50:30,0.006,0.0,0.0,0.0
11/09/2022,05:51:29,0.007,0.0,0.0,0.0
11/09/2022,05:52:30,0.007,0.0,0.0,0.0
11/09/2022,05:53:30,0.007,0.0,0.001,0.001
11/09/2022,05:54:29,0.008,0.0,0.001,0.0
11/09/2022,05:55:30,0.008,0.0,0.001,0.0
11/09/2022,05:56:32,0.008,0.0,0.001,0.0
11/09/2022,05:57:29,0.009,0.0,0.001,0.0
11/09/2022,05:58:30,0.010,0.0,0.001,0.0
11/09/2022,05:59:30,0.010,0.0,0.001,0.0
11/09/2022,06:00:48,0.011,0.0,0.002,0.001
11/09/2022,06:01:30,0.011,0.0,0.002,0.0
11/09/2022,06:02:30,0.011,0.0,0.002,0.0
11/09/2022,06:03:30,0.011,0.0,0.002,0.0
11/09/2022,06:04:30,0.012,0.0,0.002,0.0
11/09/2022,06:05:30,0.013,0.0,0.003,0.001
11/09/2022,06:06:30,0.013,0.0,0.003,0.0
11/09/2022,06:07:30,0.013,0.0,0.003,0.0
11/09/2022,06:08:30,0.013,0.0,0.003,0.0
11/09/2022,06:09:30,0.014,0.0,0.003,0.0
11/09/2022,06:10:30,0.014,0.0,0.004,0.001
11/09/2022,06:11:30,0.014,0.0,0.004,0.0
11/09/2022,06:12:30,0.015,0.0,0.004,0.0
11/09/2022,06:13:29,0.016,0.0,0.004,0.0
11/09/2022,06:14:30,0.018,0.0,0.005,0.001
11/09/2022,06:15:30,0.018,0.0,0.005,0.0
11/09/2022,06:16:30,0.019,0.0,0.005,0.0
11/09/2022,06:17:30,0.020,0.0,0.006,0.001
11/09/2022,06:18:30,0.021,0.0,0.006,0.0
11/09/2022,06:19:30,0.021,0.0,0.006,0.0
11/09/2022,06:20:30,0.022,0.0,0.007,0.001
11/09/2022,06:21:30,0.024,0.0,0.007,0.0
11/09/2022,06:22:30,0.024,0.0,0.007,0.0
11/09/2022,06:23:30,0.025,0.0,0.008,0.001
11/09/2022,06:24:30,0.025,0.0,0.008,0.0
11/09/2022,06:25:30,0.026,0.0,0.009,0.001
11/09/2022,06:26:30,0.025,0.0,0.009,0.0
11/09/2022,06:27:29,0.027,0.0,0.01,0.001
11/09/2022,06:28:30,0.027,0.0,0.01,0.0
11/09/2022,06:29:30,0.028,0.0,0.01,0.0
11/09/2022,06:30:29,0.029,0.0,0.011,0.001
11/09/2022,06:31:30,0.030,0.0,0.011,0.0
11/09/2022,06:32:30,0.032,0.0,0.012,0.001
11/09/2022,06:33:30,0.034,0.0,0.012,0.0
11/09/2022,06:34:30,0.033,0.0,0.013,0.001
11/09/2022,06:35:29,0.035,0.0,0.014,0.001
11/09/2022,06:36:30,0.026,0.0,0.014,0.0
11/09/2022,06:37:30,0.035,0.0,0.015,0.001
11/09/2022,06:38:29,0.036,0.0,0.015,0.0
11/09/2022,06:39:30,0.037,0.0,0.016,0.001
11/09/2022,06:40:30,0.038,0.0,0.016,0.0
11/09/2022,06:41:29,0.039,0.0,0.017,0.001
11/09/2022,06:42:30,0.040,0.0,0.018,0.001
11/09/2022,06:43:30,0.040,0.0,0.018,0.0
11/09/2022,06:44:29,0.041,0.0,0.019,0.001
11/09/2022,06:45:31,0.040,0.0,0.02,0.001
11/09/2022,06:46:30,0.041,0.0,0.02,0.0
11/09/2022,06:47:29,0.041,0.0,0.021,0.001
11/09/2022,06:48:30,0.041,0.0,0.022,0.001
11/09/2022,06:49:30,0.043,0.0,0.023,0.001
11/09/2022,06:50:30,0.043,0.0,0.023,0.0
11/09/2022,06:51:30,0.045,0.0,0.024,0.001
11/09/2022,06:52:30,0.047,0.0,0.025,0.001
11/09/2022,06:53:30,0.046,0.0,0.026,0.001
11/09/2022,06:54:30,0.047,0.0,0.026,0.0
11/09/2022,06:55:30,0.049,0.0,0.027,0.001
11/09/2022,06:56:30,0.050,0.0,0.028,0.001
11/09/2022,06:57:30,0.049,0.0,0.029,0.001
11/09/2022,06:58:30,0.052,0.0,0.03,0.001
11/09/2022,06:59:30,0.054,0.0,0.03,0.0
11/09/2022,07:00:30,0.055,0.0,0.031,0.001
11/09/2022,07:01:30,0.058,0.0,0.032,0.001
11/09/2022,07:02:30,0.061,0.0,0.033,0.001
11/09/2022,07:03:30,0.062,0.0,0.034,0.001
11/09/2022,07:04:30,0.064,0.0,0.035,0.001
11/09/2022,07:05:30,0.065,0.0,0.036,0.001
11/09/2022,07:06:30,0.062,0.0,0.038,0.002
11/09/2022,07:07:30,0.065,0.0,0.039,0.001
11/09/2022,07:08:30,0.066,0.0,0.04,0.001
11/09/2022,07:09:30,0.066,0.0,0.041,0.001
11/09/2022,07:10:30,0.068,0.0,0.042,0.001
11/09/2022,07:11:30,0.071,0.0,0.043,0.001
11/09/2022,07:12:30,0.073,0.0,0.044,0.001
11/09/2022,07:13:30,0.076,0.0,0.045,0.001
11/09/2022,07:14:30,0.078,0.0,0.047,0.002
11/09/2022,07:15:30,0.079,0.0,0.048,0.001
11/09/2022,07:16:30,0.085,0.0,0.049,0.001
11/09/2022,07:17:30,0.087,0.0,0.051,0.002
11/09/2022,07:18:30,0.089,0.0,0.052,0.001
11/09/2022,07:19:30,0.089,0.0,0.054,0.002
11/09/2022,07:20:30,0.093,0.0,0.055,0.001
11/09/2022,07:21:30,0.095,0.0,0.057,0.002
11/09/2022,07:22:30,0.099,0.0,0.059,0.002
11/09/2022,07:23:30,0.099,0.0,0.06,0.001
11/09/2022,07:24:30,0.098,0.0,0.062,0.002
11/09/2022,07:25:29,0.099,0.0,0.063,0.001
11/09/2022,07:26:30,0.104,0.0,0.065,0.002
11/09/2022,07:27:30,0.109,0.0,0.067,0.002
11/09/2022,07:28:30,0.111,0.0,0.069,0.002
11/09/2022,07:29:30,0.112,0.0,0.071,0.002
11/09/2022,07:30:30,0.115,0.0,0.073,0.002
11/09/2022,07:31:30,0.116,0.0,0.074,0.001
11/09/2022,07:32:30,0.117,0.0,0.076,0.002
11/09/2022,07:33:30,0.117,0.0,0.078,0.002
11/09/2022,07:34:30,0.119,0.0,0.08,0.002
11/09/2022,07:35:30,0.119,0.0,0.082,0.002
11/09/2022,07:36:30,0.119,0.0,0.084,0.002
11/09/2022,07:37:30,0.120,0.0,0.086,0.002
11/09/2022,07:38:30,0.121,0.0,0.088,0.002
11/09/2022,07:39:30,0.123,0.0,0.09,0.002
11/09/2022,07:40:30,0.121,0.0,0.092,0.002
11/09/2022,07:41:30,0.124,0.0,0.094,0.002
11/09/2022,07:42:30,0.124,0.0,0.096,0.002
11/09/2022,07:43:30,0.124,0.0,0.099,0.003
11/09/2022,07:44:31,0.127,0.0,0.101,0.002
11/09/2022,07:45:30,0.130,0.0,0.103,0.002
11/09/2022,07:46:30,0.137,0.0,0.105,0.002
11/09/2022,07:47:30,0.138,0.0,0.107,0.002
11/09/2022,07:48:30,0.135,0.0,0.11,0.003
11/09/2022,07:49:30,0.134,0.0,0.112,0.002
11/09/2022,07:50:30,0.143,0.0,0.114,0.002
11/09/2022,07:51:30,0.140,0.0,0.116,0.002
11/09/2022,07:52:30,0.137,0.0,0.119,0.003
11/09/2022,07:53:30,0.142,0.0,0.121,0.002
11/09/2022,07:54:30,0.143,0.0,0.123,0.002
11/09/2022,07:55:30,0.140,0.0,0.126,0.003
11/09/2022,07:56:30,0.139,0.0,0.128,0.002
11/09/2022,07:57:30,0.136,0.0,0.13,0.002
11/09/2022,07:58:30,0.135,0.0,0.133,0.003
11/09/2022,07:59:30,0.136,0.0,0.135,0.002
11/09/2022,08:00:30,0.137,0.0,0.137,0.002
11/09/2022,08:01:30,0.140,0.0,0.14,0.003
11/09/2022,08:02:30,0.139,0.0,0.142,0.002
11/09/2022,08:03:30,0.141,0.0,0.144,0.002
11/09/2022,08:04:30,0.146,0.0,0.147,0.003
11/09/2022,08:05:30,0.149,0.0,0.149,0.002
11/09/2022,08:06:30,0.145,0.0,0.151,0.002
11/09/2022,08:07:30,0.148,0.0,0.154,0.003
11/09/2022,08:08:30,0.148,0.0,0.156,0.002
11/09/2022,08:09:30,0.145,0.0,0.159,0.003
11/09/2022,08:10:30,0.147,0.0,0.161,0.002
11/09/2022,08:11:30,0.154,0.0,0.164,0.003
11/09/2022,08:12:30,0.154,0.0,0.166,0.002
11/09/2022,08:13:30,0.154,0.0,0.169,0.003
11/09/2022,08:14:30,0.149,0.0,0.171,0.002
11/09/2022,08:15:30,0.155,0.0,0.174,0.003
11/09/2022,08:16:30,0.153,0.0,0.177,0.003
11/09/2022,08:17:30,0.156,0.0,0.179,0.002
11/09/2022,08:18:30,0.152,0.0,0.182,0.003
11/09/2022,08:19:30,0.154,0.0,0.184,0.002
11/09/2022,08:20:30,0.162,0.0,0.187,0.003
11/09/2022,08:21:30,0.160,0.0,0.19,0.003
11/09/2022,08:22:30,0.173,0.0,0.192,0.002
11/09/2022,08:23:30,0.180,0.0,0.195,0.003
11/09/2022,08:24:30,0.182,0.0,0.198,0.003
11/09/2022,08:25:30,0.189,0.0,0.201,0.003
11/09/2022,08:26:30,0.195,0.0,0.205,0.004
11/09/2022,08:27:30,0.190,0.0,0.208,0.003
11/09/2022,08:28:30,0.196,0.0,0.211,0.003
11/09/2022,08:29:30,0.207,0.0,0.214,0.003
11/09/2022,08:30:30,0.211,0.0,0.218,0.004
11/09/2022,08:31:30,0.215,0.0,0.221,0.003
11/09/2022,08:32:30,0.209,0.0,0.225,0.004
11/09/2022,08:33:30,0.203,0.0,0.228,0.003
11/09/2022,08:34:30,0.207,0.0,0.232,0.004
11/09/2022,08:35:30,0.205,0.0,0.235,0.003
11/09/2022,08:36:30,0.209,0.0,0.239,0.004
11/09/2022,08:37:30,0.217,1.0,0.242,0.003
11/09/2022,08:38:30,0.226,1.0,0.246,0.004
11/09/2022,08:39:30,0.233,1.0,0.25,0.004
11/09/2022,08:40:30,0.234,1.0,0.254,0.004
11/09/2022,08:41:30,0.245,1.0,0.258,0.004
11/09/2022,08:42:31,0.250,1.0,0.262,0.004
11/09/2022,08:43:30,0.256,1.0,0.266,0.004
11/09/2022,08:44:30,0.261,1.0,0.27,0.004
11/09/2022,08:45:31,0.255,1.0,0.275,0.005
11/09/2022,08:46:30,0.253,1.0,0.279,0.004
11/09/2022,08:47:30,0.267,1.0,0.283,0.004
11/09/2022,08:48:30,0.272,1.0,0.288,0.005
11/09/2022,08:49:30,0.284,1.0,0.292,0.004
11/09/2022,08:50:30,0.287,1.0,0.297,0.005
11/09/2022,08:51:30,0.317,1.0,0.302,0.005
11/09/2022,08:52:30,0.327,1.0,0.308,0.006
11/09/2022,08:53:30,0.323,1.0,0.313,0.005
11/09/2022,08:54:30,0.321,1.0,0.318,0.005
11/09/2022,08:55:30,0.319,1.0,0.324,0.006
11/09/2022,08:56:30,0.323,1.0,0.329,0.005
11/09/2022,08:57:30,0.334,1.0,0.334,0.005
11/09/2022,08:58:30,0.361,1.0,0.34,0.006
11/09/2022,08:59:30,0.366,1.0,0.346,0.006
11/09/2022,09:00:30,0.351,1.0,0.352,0.006
11/09/2022,09:01:30,0.341,1.0,0.358,0.006
11/09/2022,09:02:31,0.332,1.0,0.364,0.006
11/09/2022,09:03:30,0.320,1.0,0.369,0.005
11/09/2022,09:04:30,0.312,1.0,0.374,0.005
11/09/2022,09:05:31,0.315,1.0,0.38,0.006
11/09/2022,09:06:30,0.324,1.0,0.385,0.005
11/09/2022,09:07:30,0.323,1.0,0.39,0.005
11/09/2022,09:08:30,0.325,1.0,0.396,0.006
11/09/2022,09:09:30,0.339,1.0,0.401,0.005
11/09/2022,09:10:30,0.355,1.0,0.407,0.006
11/09/2022,09:11:30,0.366,1.0,0.413,0.006
11/09/2022,09:12:30,0.366,1.0,0.419,0.006
11/09/2022,09:13:30,0.360,1.0,0.425,0.006
11/09/2022,09:14:30,0.367,1.0,0.431,0.006
11/09/2022,09:15:30,0.359,1.0,0.437,0.006
11/09/2022,09:16:30,0.357,1.0,0.443,0.006
11/09/2022,09:17:30,0.366,1.0,0.449,0.006
11/09/2022,09:18:30,0.367,1.0,0.455,0.006
11/09/2022,09:19:30,0.360,1.0,0.461,0.006
11/09/2022,09:20:30,0.368,1.0,0.468,0.007
11/09/2022,09:21:30,0.365,1.0,0.474,0.006
11/09/2022,09:22:30,0.370,1.0,0.48,0.006
11/09/2022,09:23:30,0.398,1.0,0.486,0.006
11/09/2022,09:24:31,0.436,1.0,0.493,0.007
11/09/2022,09:25:30,0.470,1.0,0.501,0.008
11/09/2022,09:26:30,0.470,1.0,0.509,0.008
11/09/2022,09:27:31,0.453,1.0,0.516,0.007
11/09/2022,09:28:30,0.452,1.0,0.524,0.008
11/09/2022,09:29:30,0.489,1.0,0.532,0.008
11/09/2022,09:30:31,0.485,1.0,0.54,0.008
11/09/2022,09:31:30,0.477,1.0,0.548,0.008
11/09/2022,09:32:30,0.469,1.0,0.556,0.008
11/09/2022,09:33:31,0.483,1.0,0.564,0.008
11/09/2022,09:34:30,0.504,1.0,0.572,0.008
11/09/2022,09:35:30,0.507,1.0,0.58,0.008
11/09/2022,09:36:31,0.515,1.0,0.589,0.009
11/09/2022,09:37:30,0.512,1.0,0.597,0.008
11/09/2022,09:38:30,0.516,1.0,0.606,0.009
11/09/2022,09:39:30,0.527,1.0,0.615,0.009
11/09/2022,09:40:30,0.542,1.0,0.623,0.008
11/09/2022,09:41:30,0.546,1.0,0.633,0.01
11/09/2022,09:42:47,0.542,1.0,0.644,0.011
11/09/2022,09:43:30,0.540,1.0,0.651,0.007
11/09/2022,09:44:30,0.542,1.0,0.66,0.009
11/09/2022,09:45:30,0.543,1.0,0.669,0.009
11/09/2022,09:46:30,0.572,1.0,0.678,0.009
11/09/2022,09:47:31,0.621,1.0,0.688,0.01
11/09/2022,09:48:30,0.636,1.0,0.698,0.01
11/09/2022,09:49:30,0.646,1.0,0.709,0.011
11/09/2022,09:50:30,0.632,1.0,0.72,0.011
11/09/2022,09:51:30,0.631,1.0,0.73,0.01
11/09/2022,09:52:30,0.625,1.0,0.741,0.011
11/09/2022,09:53:30,0.620,1.0,0.751,0.01
11/09/2022,09:54:30,0.620,1.0,0.761,0.01
11/09/2022,09:55:31,0.619,1.0,0.772,0.011
11/09/2022,09:56:30,0.636,1.0,0.782,0.01
11/09/2022,09:57:30,0.655,2.0,0.793,0.011
11/09/2022,09:58:31,0.653,2.0,0.804,0.011
11/09/2022,09:59:30,0.614,1.0,0.814,0.01
11/09/2022,10:00:30,0.584,1.0,0.824,0.01
11/09/2022,10:01:31,0.559,1.0,0.834,0.01
11/09/2022,10:02:30,0.539,1.0,0.843,0.009
11/09/2022,10:03:30,0.519,1.0,0.852,0.009
11/09/2022,10:04:31,0.500,1.0,0.86,0.008